Location: Asheville, NC
(35.6000°N, 82.5500°W)
Time: 19:46:43
(UTC-04:00)

Vanguard 3 - Pass Details

Date: 12 March 2018
Orbit: 508 x 3264 km, 33.3° (Epoch: 23 June)

Event Time Altitude Azimuth Distance (km) Brightness Sun altitude
Rises 11:00:20 0° 250° (WSW) 7,222 11.7 36.2°
Reaches altitude 10° 11:05:22 10° 250° (WSW) 6,124 11.4 37.0°
Maximum altitude 11:24:07 76° 169° (SSE) 2,528 10.6 39.9°
Drops below altitude 10° 11:35:37 10° 86° (E) 3,989 11.3 41.5°
Sets 11:38:11 0° 85° (E) 4,681 11.4 41.9°
